Dewpoint
53 53 53 53 52 53 54 54 54 54 54 54 54 54 54 54 55 55 55 55 55 55 55 56 56 56 56 56 56 58 58 55 53 52 49 46 51 54 60 60 62 59 62 26 30 29 27 28 27 27 26 25 26 22 21 21 34 28 27 37 34 34 38 42 41 43 42 47 50 52 52 53 51 54 56 58 57 57 57 57 58 59 59 60 60 61 62 62
52 53 53 52 52 53 54 54 54 54 54 54 53 53 54 54 54 54 55 55 55 55 56 56 56 56 56 56 56 58 56 54 52 52 49 51 60 60 63 63 64 62 55 26 24 26 26 27 25 24 23 22 25 26 23 26 41 36 38 32 25 38 41 46 46 46 47 46 50 51 52 52 52 52 54 54 54 55 54 56 57 56 58 59 60 60 61 62
53 52 52 52 52 52 53 54 54 54 53 53 54 54 54 54 54 55 55 55 55 55 56 56 56 56 56 56 57 58 56 53 52 44 39 60 61 60 63 65 64 63 34 28 22 26 27 28 24 25 28 24 36 37 43 42 44 42 39 34 38 42 47 51 51 48 50 51 51 51 51 52 52 53 55 54 54 53 52 53 55 55 55 58 59 60 60 60
53 53 52 52 52 53 53 53 53 53 54 54 54 54 54 54 55 55 55 55 55 55 55 56 56 56 56 57 59 57 55 52 26 32 38 58 61 61 62 64 65 60 31 21 23 26 30 32 30 30 39 40 42 45 43 44 41 44 44 39 42 47 47 50 51 52 52 52 51 51 51 51 53 54 54 54 52 52 54 56 55 54 56 57 59 60 60 59
51 51 51 52 53 53 53 53 53 53 53 53 54 54 54 54 54 55 55 55 55 55 56 56 56 56 56 57 58 56 49 9 13 31 43 63 61 61 62 64 63 41 31 34 29 31 31 30 29 37 39 40 43 42 44 46 47 48 46 48 48 48 48 51 52 52 52 52 51 50 51 51 55 55 55 54 51 51 54 56 57 57 57 58 58 59 59 58
51 51 52 53 53 53 53 53 53 53 53 54 54 54 54 54 54 55 55 55 55 56 56 56 56 56 57 58 55 55 29 8 17 24 57 64 62 63 63 64 60 36 31 28 27 28 21 23 27 35 44 44 44 39 44 48 49 44 48 50 51 50 49 51 52 51 51 51 51 51 53 53 52 53 55 54 53 55 57 58 57 58 58 59 59 59 58 58
52 52 52 52 53 53 53 53 53 53 53 53 53 54 54 54 54 55 55 55 55 56 56 56 56 56 57 58 54 50 28 26 38 33 64 66 63 63 64 63 56 32 30 27 26 22 26 34 38 42 43 44 45 46 47 48 49 47 46 49 51 52 51 51 52 52 52 51 52 53 53 51 51 50 54 54 56 57 58 58 58 58 58 59 58 59 58 58
53 52 52 53 52 52 53 53 53 53 53 53 54 54 54 54 54 55 55 55 55 55 56 56 56 56 57 53 53 38 37 28 30 43 67 65 63 63 57 41 36 29 26 24 24 21 29 39 42 42 42 42 43 46 46 47 49 48 47 50 51 52 52 53 53 53 53 53 54 53 51 52 52 51 53 53 55 57 58 58 58 58 57 57 58 58 59 59
52 52 52 52 52 52 53 53 53 53 54 54 54 54 54 54 54 54 55 55 55 55 55 56 56 56 58 53 42 24 21 35 42 53 62 57 56 48 40 38 35 30 29 25 24 22 24 24 41 40 39 43 45 44 47 44 43 50 50 51 51 51 52 52 52 52 53 53 53 52 51 52 53 55 52 54 55 57 58 58 57 57 56 56 58 59 59 59
52 52 52 52 52 53 53 53 53 54 54 53 54 54 54 54 54 54 55 55 55 55 55 56 56 57 55 51 30 16 19 39 49 60 52 51 46 39 37 42 34 28 24 27 23 25 21 21 41 44 46 46 48 48 48 47 45 51 51 51 51 51 52 52 51 51 53 53 53 51 51 52 54 53 48 54 56 57 56 56 57 56 56 57 58 59 60 59
52 52 52 52 52 53 53 53 53 53 53 54 54 54 54 54 54 54 54 55 55 55 56 55 56 56 53 51 29 22 31 31 43 50 51 46 39 31 35 41 33 29 23 25 24 24 24 41 45 46 45 43 49 50 50 50 51 51 51 50 50 50 51 52 51 52 52 51 53 52 51 53 54 53 51 54 56 56 55 55 56 56 56 57 58 58 59 60
52 52 52 52 52 53 53 53 54 54 53 54 54 53 54 54 54 54 54 54 54 55 55 56 57 56 54 47 34 28 39 31 46 44 47 39 34 35 39 41 33 29 24 22 24 25 39 45 46 49 44 48 47 49 49 51 51 49 50 48 48 49 48 50 50 51 52 51 54 53 50 49 50 49 53 55 56 56 55 55 55 56 56 56 57 58 59 59
52 52 53 53 53 53 53 53 53 53 53 53 53 54 54 54 54 55 55 54 55 55 56 57 58 55 52 31 40 44 46 39 42 41 40 36 34 33 38 37 33 28 23 24 33 36 44 44 45 45 47 48 48 44 49 50 49 49 48 47 46 45 46 49 52 52 51 52 54 52 42 46 49 52 53 55 56 55 55 54 55 55 55 55 56 57 58 57
52 53 53 53 53 53 53 53 53 53 53 53 53 53 54 55 55 55 55 55 56 56 56 57 56 55 45 32 33 40 48 37 40 37 37 37 25 28 33 37 34 30 29 27 40 46 47 47 47 47 48 46 47 50 48 49 49 44 46 45 40 40 42 48 50 52 49 52 52 52 42 45 49 51 53 55 55 54 53 54 53 54 54 55 56 56 56 56
53 53 53 53 53 53 53 53 53 53 53 53 53 54 54 54 55 55 55 55 57 57 57 57 53 52 46 45 46 51 61 32 29 28 36 28 25 21 28 31 32 31 28 31 45 47 46 46 47 46 46 49 48 45 44 45 45 44 40 38 39 37 39 48 51 50 48 50 53 48 43 45 49 51 53 55 54 54 53 53 53 53 54 55 56 55 55 55
53 53 53 53 53 53 53 53 53 53 53 53 54 54 55 55 55 55 55 56 57 57 56 53 51 49 40 31 34 46 32 30 26 28 32 27 23 20 25 29 30 31 42 44 46 47 47 47 46 46 46 44 43 42 40 40 39 40 38 37 39 40 43 44 46 50 52 50 50 47 42 47 48 52 53 55 54 54 53 52 53 53 54 55 55 54 54 54
53 53 53 53 53 53 53 53 53 53 53 53 54 55 57 55 55 55 56 57 57 57 56 52 53 53 29 30 35 33 33 33 28 26 28 30 24 25 28 28 28 36 42 43 43 38 41 45 47 44 44 44 43 39 34 33 34 37 39 37 39 41 42 40 45 49 50 49 45 48 45 47 49 52 53 53 52 51 51 52 53 53 55 55 54 54 53 53
53 53 53 53 53 53 53 53 53 53 54 53 53 56 55 56 57 57 56 57 56 56 55 56 51 33 24 30 28 29 33 30 28 26 27 28 26 25 26 26 35 41 41 40 40 34 38 44 41 41 42 43 42 36 31 29 36 35 38 38 39 41 40 40 41 44 48 48 45 47 48 48 50 51 52 52 51 51 50 51 52 54 55 54 54 53 53 53
53 53 53 53 53 53 54 53 53 53 54 54 54 55 56 56 55 54 53 54 39 29 29 35 34 29 22 24 28 33 32 31 29 27 25 25 30 29 34 31 40 39 38 39 38 34 34 38 41 40 39 39 40 39 33 34 38 39 40 39 39 39 39 40 43 48 48 46 44 45 45 48 49 50 52 52 51 50 50 50 52 54 54 52 52 52 52 52
53 53 53 53 53 53 53 53 53 53 54 54 53 53 52 38 26 35 47 50 39 24 26 29 40 40 36 34 29 31 34 27 26 26 29 37 25 25 25 29 29 33 37 36 36 32 36 35 36 35 38 41 40 41 37 39 41 42 42 41 40 39 41 44 46 48 48 45 45 46 47 48 49 49 51 51 51 50 50 50 51 52 53 52 51 52 52 52
53 53 53 53 53 53 53 52 53 52 54 53 53 46 33 28 21 26 26 42 48 47 35 38 36 30 22 25 28 29 25 25 25 25 25 37 26 23 24 25 29 27 31 32 32 33 33 31 31 32 32 41 41 41 42 42 42 42 41 40 38 39 40 43 45 48 49 44 44 47 47 47 48 49 50 51 50 49 50 50 51 52 52 51 51 51 51 52
53 53 53 53 53 52 52 52 52 52 53 50 52 52 53 32 22 30 29 26 25 42 46 42 41 36 38 38 35 30 29 28 24 25 24 26 25 21 23 25 26 23 30 31 30 30 30 28 27 29 37 40 41 42 41 41 41 41 40 39 39 40 42 44 46 47 47 45 44 45 44 44 45 46 48 50 50 49 49 50 50 51 51 51 51 51 51 50
53 53 53 53 52 52 52 51 52 51 52 50 50 52 49 52 50 46 32 28 30 34 42 42 37 38 37 40 39 35 30 28 21 21 22 25 24 22 25 23 27 26 31 30 27 30 29 30 29 33 40 40 40 40 40 40 41 40 40 37 37 41 39 36 41 46 46 44 43 43 43 42 44 48 49 49 50 49 49 50 50 51 51 51 52 51 51 50
53 53 53 53 52 52 51 51 50 51 51 50 51 49 48 49 48 44 40 38 37 36 34 39 36 35 33 27 27 32 27 23 22 21 30 24 22 23 25 23 24 27 25 29 28 26 25 28 32 37 40 39 39 40 39 39 38 40 40 38 39 41 39 38 41 44 44 45 44 42 38 37 39 43 43 45 50 49 48 50 51 51 51 51 52 51 51 51
53 53 53 52 52 52 51 50 50 49 50 52 49 50 49 49 49 46 38 33 34 33 35 31 35 28 28 26 31 24 23 24 21 24 27 22 23 23 23 28 26 24 24 29 29 28 29 28 33 38 39 39 39 38 39 39 38 38 40 41 41 42 42 43 43 40 38 39 42 39 29 31 37 41 43 43 47 48 48 49 49 50 51 51 51 51 51 52
53 52 52 52 52 51 50 49 47 50 49 46 48 49 47 45 47 44 35 33 28 30 30 28 30 25 29 26 24 24 21 20 21 21 26 22 29 21 23 24 25 23 26 28 27 30 27 29 32 36 38 39 38 38 39 38 38 37 38 41 42 43 43 43 40 37 33 33 39 40 30 27 32 39 42 43 45 47 47 48 49 49 50 51 51 51 50 51
52 52 52 52 52 51 50 43 49 48 40 35 43 44 42 44 47 39 32 27 24 30 30 30 28 27 28 27 22 22 21 20 22 26 23 34 21 24 19 20 21 25 29 31 26 22 28 25 31 37 38 37 37 37 39 39 38 35 38 42 43 43 43 42 39 36 33 39 43 42 34 31 28 36 41 44 44 45 46 47 48 49 49 51 51 50 50 50
52 52 52 52 52 50 47 47 40 43 37 38 43 42 43 47 42 41 31 20 18 33 27 28 34 31 25 24 21 21 22 21 17 22 26 26 21 18 19 16 17 19 28 22 19 21 24 24 32 35 37 36 36 37 39 39 36 36 41 43 43 43 43 41 40 38 38 37 35 38 39 31 29 33 40 43 43 43 44 46 47 48 49 50 50 50 50 50
52 52 52 52 51 50 51 49 41 37 42 45 44 42 47 43 38 32 28 21 29 40 34 32 30 25 24 21 20 22 21 23 19 21 22 20 21 18 17 18 26 25 28 23 22 22 24 24 29 35 35 34 36 36 39 36 36 42 43 43 42 42 42 41 38 37 33 32 30 35 38 31 30 32 39 41 41 42 44 45 46 48 49 50 50 49 49 49
52 52 52 51 51 49 50 50 44 44 48 45 42 48 47 42 35 29 24 22 37 30 34 36 24 21 25 22 18 19 19 20 23 21 20 20 21 28 28 23 29 29 29 30 23 23 26 43 34 33 34 33 33 36 38 39 41 42 41 40 39 39 39 38 36 34 31 24 29 34 39 32 29 30 39 40 41 42 43 44 46 48 49 50 50 49 49 49
51 52 51 50 46 47 46 36 37 46 46 44 47 46 41 35 31 22 20 28 35 34 35 31 31 34 34 33 28 24 19 19 18 18 16 18 22 26 27 25 29 28 30 29 28 28 28 28 28 29 37 34 38 39 41 42 42 41 39 38 38 36 33 34 30 32 27 26 30 32 39 35 29 28 33 41 42 43 43 43 45 47 48 49 49 49 49 49
51 51 51 50 50 49 35 32 35 42 44 48 47 41 36 25 28 24 25 35 31 34 34 32 34 34 35 33 21 18 19 17 19 16 15 16 24 24 26 28 32 23 25 27 23 29 26 27 29 31 46 37 38 38 37 38 39 39 39 37 33 28 27 25 26 26 27 26 31 37 39 35 34 34 35 38 41 42 44 44 45 46 48 49 49 49 49 48
50 51 50 50 50 48 46 41 45 45 47 51 44 40 30 26 19 29 32 33 32 36 34 37 35 35 35 32 27 22 18 19 20 18 18 20 20 20 26 27 32 25 23 30 26 27 26 28 30 29 31 36 37 37 36 36 37 38 37 33 29 25 20 18 19 24 26 28 32 37 38 33 34 36 38 39 39 40 44 45 45 47 48 49 49 48 48 48
50 50 47 49 49 48 46 49 47 46 49 49 39 36 29 24 21 47 34 36 34 38 38 35 35 36 36 31 27 25 23 19 17 16 16 21 19 21 21 29 29 30 33 31 24 28 21 23 26 30 30 32 34 37 38 38 37 38 34 33 31 29 25 19 21 20 21 26 30 37 33 29 29 31 36 38 39 40 42 45 46 47 48 49 49 48 48 48
49 47 48 49 49 49 49 48 48 52 46 41 35 32 24 24 29 31 33 36 38 40 36 37 37 31 31 29 29 24 21 24 18 17 18 17 20 24 22 21 30 31 30 25 26 28 25 25 27 29 31 32 31 36 37 37 37 36 36 31 29 28 30 23 24 24 24 29 27 32 30 31 33 36 41 43 44 44 46 46 48 48 49 49 48 48 48 48
44 49 48 45 50 50 48 49 48 47 38 37 33 29 25 32 31 35 35 39 39 37 36 32 33 29 30 32 31 17 21 22 21 17 19 19 23 24 26 26 25 29 26 25 29 25 24 23 25 28 31 31 31 36 36 37 32 35 32 31 32 33 30 26 26 27 27 24 23 24 33 34 34 33 38 43 44 45 46 47 47 48 48 49 48 48 48 48
42 47 34 40 39 51 49 48 50 45 37 33 31 25 34 38 38 40 47 37 36 38 36 29 31 29 30 27 27 27 20 22 24 15 17 22 22 25 26 26 28 29 26 31 29 31 25 25 28 25 26 31 35 35 34 34 35 32 30 32 34 32 31 26 20 20 20 20 20 29 30 29 29 26 37 41 42 43 45 46 47 48 48 48 48 48 48 48
47 45 46 48 46 46 50 49 46 41 38 35 24 38 41 36 42 42 45 40 37 38 36 31 33 31 31 26 29 25 25 19 26 20 21 23 21 28 26 25 27 28 28 29 23 25 27 22 24 26 27 29 28 33 31 32 34 33 33 35 30 23 24 28 24 17 18 17 18 24 27 29 28 31 33 36 40 41 44 45 46 47 48 48 48 49 48 48
45 38 34 37 41 47 50 47 41 42 37 30 28 27 34 41 42 44 44 39 39 39 35 36 32 34 31 31 29 29 24 19 24 27 21 22 19 27 23 25 25 29 29 27 24 29 31 21 25 24 26 26 30 31 28 31 32 31 31 31 34 29 27 25 25 26 23 15 18 21 25 24 31 32 35 36 40 42 44 45 46 47 47 48 48 49 48 48
38 32 33 37 42 49 50 48 43 37 33 25 31 33 37 40 40 42 44 38 38 37 37 36 36 33 37 33 31 30 28 19 18 24 21 25 26 26 26 23 25 25 28 28 24 33 24 30 18 24 25 30 29 29 29 30 30 30 29 29 28 31 32 29 28 25 23 18 17 17 17 23 28 34 37 36 40 42 44 45 46 46 47 48 48 49 49 48
43 35 35 39 44 46 43 42 34 32 30 33 40 36 43 38 41 41 43 42 39 40 37 38 37 33 35 32 34 29 26 25 22 23 25 25 23 19 24 21 24 21 26 25 28 29 23 23 20 23 27 27 28 31 30 30 31 30 30 29 28 29 27 23 24 28 28 24 20 17 19 25 29 40 40 38 39 42 44 45 45 46 47 48 48 49 49 48
34 27 32 37 48 44 40 34 35 38 32 29 30 38 35 48 42 41 40 40 39 38 40 40 39 36 36 34 33 33 27 19 25 25 23 22 22 25 23 23 23 21 23 25 25 30 26 29 26 20 25 25 26 26 28 30 31 32 30 29 31 30 28 23 19 24 24 28 28 25 20 22 33 40 43 42 41 42 43 45 45 46 47 47 48 49 49 49
34 32 38 42 50 41 40 35 37 34 30 34 37 41 42 42 41 41 37 37 37 37 38 37 36 36 36 34 34 32 24 19 21 23 23 23 22 25 26 20 27 29 31 30 22 32 53 24 21 24 26 30 29 30 33 31 26 26 25 30 29 27 30 26 25 26 21 26 24 22 19 25 33 40 43 44 42 43 44 45 45 46 47 48 48 48 48 48
36 37 35 44 49 45 38 29 29 30 38 40 44 42 44 41 40 39 37 37 39 37 37 37 34 34 35 36 29 28 23 21 20 21 21 23 20 22 35 25 32 28 21 25 24 33 20 24 26 21 21 23 27 28 28 31 31 28 25 27 31 33 32 31 30 28 18 28 26 23 17 20 33 40 43 44 44 44 44 45 46 46 47 48 48 48 48 48
43 39 44 46 47 43 33 37 35 32 35 37 44 43 40 41 42 40 39 38 40 38 37 35 34 35 36 33 29 22 20 18 21 22 22 24 26 24 29 33 37 31 35 41 44 28 25 27 26 19 16 15 15 15 20 24 24 26 31 29 30 30 29 24 19 24 18 22 28 21 20 26 30 38 42 43 44 44 45 45 46 46 47 47 48 48 48 48
32 16 31 40 43 45 44 45 43 37 34 39 36 43 42 39 40 42 40 39 39 41 37 37 34 30 29 23 24 24 21 21 20 24 19 20 18 22 24 31 35 36 52 53 49 37 29 33 29 26 23 23 25 26 30 31 25 23 25 28 26 33 32 29 27 22 22 25 27 27 27 29 33 35 39 42 43 44 44 45 46 46 46 47 47 48 48 48
37 29 34 29 41 39 40 42 40 38 35 41 34 42 42 41 41 39 41 38 36 39 37 36 30 25 27 23 26 26 23 25 25 23 23 20 19 21 24 28 40 54 49 47 48 36 32 27 29 30 28 27 29 30 33 31 25 26 25 25 28 30 30 28 22 19 28 28 22 29 32 31 33 36 37 40 42 43 44 44 45 45 47 47 48 48 51 47
23 31 39 42 36 33 34 35 43 44 43 40 40 43 42 41 39 37 38 40 40 35 31 32 32 33 30 27 26 22 26 26 26 22 28 23 27 27 26 25 28 38 43 31 43 34 30 22 28 29 28 33 33 33 36 31 27 27 26 27 26 30 30 27 28 29 30 20 22 28 33 32 34 36 37 39 42 43 44 45 46 46 47 47 47 48 48 47
32 35 37 46 41 43 42 44 46 44 44 42 40 43 40 40 38 39 37 38 38 37 32 28 34 34 34 35 31 28 30 21 19 26 27 26 28 29 26 24 25 28 30 31 34 37 32 28 32 31 29 30 33 36 37 32 28 27 28 28 28 30 30 29 29 31 31 28 30 31 34 34 36 36 37 39 42 44 44 45 46 46 47 47 47 47 48 47
28 32 39 48 46 45 45 45 43 43 40 44 35 40 41 41 38 40 39 38 35 36 34 36 35 35 37 37 36 29 32 32 30 24 30 28 27 30 29 28 24 24 30 28 35 32 30 24 35 31 26 27 31 35 34 29 27 24 24 30 31 31 30 31 31 35 35 30 35 34 34 34 37 38 38 40 43 45 45 45 45 46 47 47 47 47 47 47
51 45 45 44 41 43 46 43 41 39 37 40 39 41 41 41 40 40 39 39 37 37 38 36 35 35 37 37 35 31 33 35 36 30 35 31 26 29 25 29 25 26 29 29 33 31 32 23 31 29 22 25 28 34 33 33 29 27 28 29 29 29 27 28 26 34 30 29 32 32 29 30 34 39 42 43 43 44 44 44 45 45 46 47 47 47 47 47
49 49 50 45 38 46 42 43 41 38 34 40 42 42 41 40 42 39 35 38 37 36 38 37 37 34 29 32 30 30 34 37 36 32 35 30 30 34 28 29 24 29 29 28 36 26 30 28 24 23 22 20 26 33 31 29 28 26 26 28 30 31 31 33 34 36 36 35 31 25 26 33 35 41 40 41 42 43 43 44 44 45 46 46 46 47 47 47